Погода в Каикоуре

Новая Зеландия     42°23′47″S   173°40′51″E
темп.,
°C
ветер,
м/с
пор.,
м/с
влажн.,
%
обл.,
%
осадки,
мм/ч
давл.,
гПа
погр.,
м
18 апреля, вс
вс1800:00+12св777122 0.0 1012798
03:00+12ссв33734 0.0 1011515
06:00+12зюз32721 0.0 1012230
09:00+12зюз22685 0.0 1013194
12:00+12в11720 0.0 1013143
15:00+13св55740 0.0 1011294
18:00+14ссв55730 0.0 1011245
21:00+14ссв23730 0.0 101190
19 апреля, пн
пн1900:00+14з11691 0.0 101122
03:00+14юз336571 0.0 1011118
06:00+14зюз226149 0.0 1012112
09:00+14зюз1158100 0.0 101492
12:00+14в1163100 0.0 101492
15:00+14св447099 0.0 1014179
18:00+15св5677100 0.0 1014200
21:00+15св347789 0.0 101593
20 апреля, вт
вт2000:00+14з117513 0.0 101418
03:00+14зюз2271100 0.0 101359
06:00+14юз3368100 0.0 1013134
09:00+14юз116687 0.0 1014104
12:00+14всв226888 0.0 1012131
15:00+14в2271100 0.0 1009129
18:00+15ююз1175100 0.0 100726
21:00+15ссв3371100 0.0 100655
21 апреля, ср
ср2100:00+14ссз2285100 1.0 1005139
03:00+14юз1183100 0.2 100286
06:00+14юз2283100 0.3 1003133
09:00+14юз4480100 0.1 1003150
12:00+15ююз5673100 0.1 1004193
15:00+15ю4572100 0.0 1003136
18:00+14юв01784 0.0 100517
21:00+14зсз1175100 0.0 100725
22 апреля, чт
чт2200:00+14ю11756 0.0 100810
03:00+14всв11742 0.0 100823
06:00+14ссв22750 0.0 1009109
09:00+14св34820 0.0 1009266
12:00+14св55840 0.0 1008181
15:00+15св44780 0.0 100667
18:00+15ссз118216 0.0 100612
21:00+16зюз3366100 0.0 100724